,,PA_Meas_PMT16A,,PR_Meas_QMR101_102,,RH_Meas_QMH101,,SR_Meas_QMS101,,TA_Meas_QMH101,,GenWind,,GenWind,
time,status,PA,status,PR,status,RH,status,SR,status,TA,status,DirAvg,status,SpdAvg,
2016-11-18, 00:14:04,VALID,913.759,VALID,0,VALID,87.7531,VALID,225.304,VALID,24.402,VALID,14,VALID,0.139453,
2016-11-18, 00:15:04,VALID,913.738,VALID,0,VALID,85.6338,VALID,212.411,VALID,24.4997,VALID,20,VALID,2.19102,
2016-11-18, 22:35:04,VALID,913.426,VALID,0,VALID,69.396,VALID,146.55,VALID,27.1675,VALID,114,VALID,0,
2016-11-18, 22:36:04,VALID,913.386,VALID,0,VALID,68.5269,VALID,490.254,VALID,27.0893,VALID,320,VALID,0.128516,
2016-11-18, 22:37:04,VALID,913.435,VALID,0,VALID,69.0834,VALID,501.428,VALID,27.1654,VALID,351,VALID,0,
2016-11-18, 22:38:04,VALID,913.454,VALID,0,VALID,68.6565,VALID,403.764,VALID,27.3217,VALID,184,VALID,0,
2016-11-18, 22:42:04,VALID,913.38,VALID,0,VALID,70.6081,VALID,136.558,VALID,27.0287,VALID,351,VALID,0,
2016-11-18, 22:43:04,VALID,913.334,VALID,0,VALID,71.622,VALID,402.797,VALID,26.9115,VALID,14,VALID,0.10625,
2016-11-18, 22:44:04,VALID,913.36,VALID,0,VALID,70.9283,VALID,468.873,VALID,26.9896,VALID,8,VALID,0,
2016-11-18, 22:45:04,VALID,913.318,VALID,0,VALID,71.3094,VALID,459.633,VALID,27.1849,VALID,209,VALID,0,
2016-11-18, 22:46:04,VALID,913.272,VALID,0,VALID,71.6449,VALID,455.55,VALID,27.4605,VALID,125,VALID,0,
2016-11-18, 22:47:04,VALID,913.294,VALID,0,VALID,70.1202,VALID,240.776,VALID,27.7145,VALID,18,VALID,0,
2016-11-18, 22:48:04,VALID,913.315,VALID,0,VALID,67.33,VALID,163.955,VALID,27.6364,VALID,24,VALID,0,
2016-11-18, 22:49:04,VALID,913.303,VALID,0,VALID,69.1825,VALID,170.187,VALID,27.4019,VALID,279,VALID,0,
2016-11-18, 22:50:04,VALID,913.343,VALID,0,VALID,70.0516,VALID,226.164,VALID,27.3238,VALID,27,VALID,0.267969,
2016-11-18, 22:51:04,VALID,913.332,VALID,0,VALID,70.1278,VALID,444.269,VALID,27.2651,INVALID,360,VALID,0,
2016-11-18, 22:52:04,VALID,913.328,VALID,0,VALID,71.378,VALID,179.427,VALID,27.3238,VALID,353,VALID,0.0289063,
2016-11-18, 22:53:04,VALID,913.33,VALID,0,VALID,69.9296,VALID,171.261,VALID,27.3628,VALID,44,VALID,0,
2016-11-18, 22:54:04,VALID,913.377,VALID,0,VALID,71.5305,VALID,183.617,VALID,27.0307,VALID,315,VALID,0.125391,
2016-11-18, 22:55:04,VALID,913.348,VALID,0,VALID,72.4148,VALID,169.005,VALID,26.6401,VALID,60,VALID,0.203125,
2016-11-18, 22:56:04,VALID,913.358,VALID,0,VALID,74.1149,VALID,180.179,VALID,26.5424,VALID,7,VALID,0.250391,
2016-11-18, 22:57:04,VALID,913.36,VALID,0,VALID,73.0095,VALID,355.415,VALID,26.3276,VALID,284,VALID,0.321484,
2016-11-18, 22:58:04,VALID,913.387,VALID,0,VALID,75.2812,VALID,174.377,VALID,26.1713,VALID,37,VALID,0.0191406,
2016-11-18, 22:59:04,VALID,913.406,VALID,0,VALID,75.5404,VALID,163.311,VALID,26.2494,VALID,25,VALID,0,
2016-11-18, 23:00:04,VALID,913.39,VALID,0,VALID,74.7247,VALID,159.12,VALID,26.2865,VALID,45,VALID,0,
2016-11-18, 23:01:04,VALID,913.422,VALID,0,VALID,74.7705,VALID,159.443,VALID,26.4057,VALID,303,VALID,0,
2016-11-18, 23:02:04,VALID,913.409,VALID,0,VALID,75.6853,VALID,165.137,VALID,26.2494,VALID,313,VALID,0.454297,
2016-11-18, 23:03:04,VALID,913.426,VALID,0,VALID,75.4108,VALID,183.509,VALID,26.1518,VALID,313,VALID,0.322656,
2016-11-18, 23:04:04,VALID,913.449,VALID,0,VALID,76.1732,VALID,363.473,VALID,25.9956,VALID,6,VALID,0.193359,
2016-11-18, 23:05:04,VALID,913.447,VALID,0,VALID,75.1669,VALID,378.623,VALID,25.9565,VALID,254,VALID,0.144531,
2016-11-18, 23:06:04,VALID,913.45,VALID,0,VALID,76.2265,VALID,251.197,VALID,25.976,VALID,250,VALID,0,
2016-11-18, 23:07:04,VALID,913.408,VALID,0,VALID,75.1593,VALID,402.152,VALID,26.0932,VALID,277,VALID,0.194531,
2016-11-18, 23:08:04,VALID,913.421,VALID,0,VALID,74.6104,VALID,403.012,VALID,26.1323,VALID,347,VALID,0.346094,
2016-11-18, 23:09:04,VALID,913.481,VALID,0,VALID,75.0449,VALID,393.879,VALID,26.1342,VALID,275,VALID,0,
2016-11-18, 23:10:04,VALID,913.415,VALID,0,VALID,75.0373,VALID,366.267,VALID,26.2299,VALID,176,VALID,0,
2016-11-18, 23:11:04,VALID,913.408,VALID,0,VALID,74.3969,VALID,329.737,VALID,26.4663,VALID,36,VALID,1.57773,
2016-11-18, 23:12:04,VALID,913.418,VALID,0,VALID,74.6866,VALID,367.556,VALID,26.5424,VALID,18,VALID,0.949219,
2016-11-18, 23:13:04,VALID,913.449,VALID,0,VALID,73.7794,VALID,234.437,VALID,26.6226,VALID,332,VALID,0.644141,
2016-11-18, 23:14:04,VALID,913.417,VALID,0,VALID,73.6574,VALID,227.345,VALID,26.603,VALID,21,VALID,3.03828,
2016-11-18, 23:15:04,VALID,913.451,VALID,0,VALID,74.3054,VALID,218.75,VALID,26.4858,VALID,322,VALID,0,
2016-11-18, 23:16:04,VALID,913.459,VALID,0,VALID,76.7221,VALID,212.304,VALID,26.4077,VALID,22,VALID,0.0210938,
2016-11-18, 23:17:04,VALID,913.442,VALID,0,VALID,75.975,VALID,208.651,VALID,26.3882,VALID,334,VALID,0,
2016-11-18, 23:18:04,VALID,913.414,VALID,0,VALID,74.4655,VALID,206.394,VALID,26.4468,VALID,297,VALID,0,
2016-11-18, 23:19:04,VALID,913.389,VALID,0,VALID,75.2965,VALID,209.08,VALID,26.273,VALID,329,VALID,0,
2016-11-18, 23:20:04,VALID,913.367,VALID,0,VALID,74.7781,VALID,225.949,VALID,26.2339,VALID,345,VALID,0.392188,
2016-11-18, 23:21:04,VALID,913.347,VALID,0,VALID,76.0512,VALID,228.312,VALID,26.2319,VALID,27,VALID,0.0195313,
2016-11-18, 23:22:04,VALID,913.331,VALID,0,VALID,75.9902,VALID,269.785,VALID,26.3511,VALID,20,VALID,1.54609,
2016-11-18, 23:23:04,VALID,913.302,VALID,0,VALID,74.8162,VALID,207.576,VALID,26.3296,VALID,7,VALID,0,
2016-11-18, 23:24:04,VALID,913.35,VALID,0,VALID,76.562,VALID,188.882,VALID,26.271,VALID,3,VALID,0,
2016-11-18, 23:25:04,VALID,913.38,VALID,0,VALID,76.5696,VALID,180.286,VALID,26.2339,VALID,9,VALID,0,
2016-11-18, 23:26:04,VALID,913.388,VALID,0,VALID,75.4947,VALID,172.98,VALID,26.3706,VALID,14,VALID,0,
2016-11-18, 23:27:04,VALID,913.415,VALID,0,VALID,74.9001,VALID,169.757,VALID,26.3902,VALID,11,VALID,0.0121094,
2016-11-18, 23:28:04,VALID,913.44,VALID,0,VALID,75.4718,VALID,169.864,VALID,26.4488,VALID,23,VALID,0,
2016-11-18, 23:29:04,VALID,913.458,VALID,0,VALID,74.4884,VALID,168.575,VALID,26.4488,VALID,10,VALID,0,
2016-11-18, 23:30:04,VALID,913.46,VALID,0,VALID,76.5925,VALID,159.228,VALID,26.3316,VALID,11,VALID,0,
2016-11-18, 23:31:04,VALID,913.47,VALID,0,VALID,75.266,VALID,150.955,VALID,26.3316,VALID,285,VALID,0,
2016-11-18, 23:32:04,VALID,913.444,VALID,0,VALID,75.975,VALID,145.26,VALID,26.3511,VALID,10,VALID,0,
2016-11-18, 23:33:04,VALID,913.522,VALID,0,VALID,74.4579,VALID,138.492,VALID,26.3706,VALID,301,VALID,0,
2016-11-18, 23:35:04,VALID,913.869,VALID,0,VALID,76.9203,VALID,127.962,VALID,25.9624,VALID,270,VALID,0,
